{"data":{"norad_id":52331,"epoch":"2026-09-20T04:00:03.000096Z","epoch_age_seconds":88463,"freshness":"FRESH","line1":"1 52331U 22045A   26263.16670139  .00000743  00000+0  32221-4 0  9996","line2":"2 52331  53.1597  53.3105 0001196  83.1230 132.4276 15.35395748  5737","mean_motion":15.35395748,"eccentricity":0.0001196,"inclination_deg":53.1597,"raan_deg":53.3105,"arg_perigee_deg":83.123,"mean_anomaly_deg":132.4276,"bstar":3.2221e-5,"rev_number":573,"period_min":93.786895129529,"perigee_km":458.92745617586,"apogee_km":460.5630776141,"semimajor_km":6837.882266895,"source":"CELESTRAK","updated_at":"2026-09-20T09:00:40.020917Z"}}